Showing default

MAROC TUBSAT, 27004

Orbit data source: Space-Track

MAROC TUBSAT, 27004 is a payload satellite owned by CRTS (DE) in SSO that was launched on Mon, 10 Dec 2001 UTC via a ZENIT-2 launch vehicle from the Tyuratam Missile And Space Complex (TTMTR). Payload-class satellites include a variety of spacecraft equipped with specific instruments for various scientific and technological missions. These include communications satellites like Starlink; space stations such as the ISS; scientific satellites like the Hubble; Earth observation satellites from companies like Planet Labs, Umbra, and HawkEye 360; GPS; miniature CubeSats for education and research; and military/defense satellites.

Loading next visibility...
Identifier
27004, 2001-056D
Orbit
SSO
Country
Flag of DEDE / GER
Related business
Manufacturer
TUB
Mission
Operational Civil Imaging
Bus & Motor
TUBSAT, Unknown motor
Mass
45 kg wet, 45 kg dry
Launch date (UTC)
2001-12-10 (24 years ago)
Launch vehicle
ZENIT-2
Launch site
Tyuratam Missile And Space Complex (TTMTR)
Object type
Payload
Rocket body
Debris
Shape & HBR
Box, 1.0 m
Radar Cross Section
0.200 m², Medium (>0.1 m² and < 1m²)

Expand to show TLE details & history
Last TLE update: 9 hours ago

TLE from 9 hours ago
0 MAROC TUBSAT
1 27004U 01056D   26150.47087302 -.00000022  00000-0  28385-4 0  9995
2 27004  99.8073 326.9971 0019749 186.0918 199.7193 13.70261700223767
Epoch: 2026-05-30T11:18Z
TLE epoch observation values (Epoch: 2026-05-30T11:18:03.428Z)
Latitude
25.36276°
Longitude
-95.1795°
Altitude
1,015.33 km
Speed
7.339 km/s
True Right ascension
21h 29m 17s
True Declination
25° 14' 04"
Sunlit
Object was in daylight at epoch
Visualization orbit readout
Latitude
Unknown
Longitude
Unknown
Altitude
Unknown
Speed
Unknown
Apparent Right ascension
Unknown
Apparent Declination
Unknown
Sunlit
N/A
Visualization observer readout
Local Sidereal Time
05:27:57
Azimuth
Unknown
Elevation
Unknown
Doppler factor
Unknown
Orbital elements
Apogee altitude
1,010.475 km
Perigee altitude
981.349 km
Semi-major axis
7,374.049 km
Eccentricity
0.00197
Inclination
99.8073°
RAAN
326.9971°
Arg. of periapsis
186.0918°
True anomaly
199.64312°
Mean anomaly
199.7193°
Eccentric anomaly
199.68119°
Mean motion
3.42755 °/min
Orbital period
105.03 mins
BSTAR
0.000028385
Loading maneuver chart data...
Computing Atmospheric mass density...
Loading historical data...
Loading historical data...
Loading historical data...
Loading historical data...
Loading historical data...
Loading historical data...
Loading historical data...

Documentation

Showing up to 5 results
|